Regional Weather Roundup
Issued by NWS

Home | Current Version | Previous Version | Text Only | Print | Product List | Glossary Off
Versions: 1 2 3 4 5 6 7 8 9 10 11 12 13 14 15 16 17 18 19 20 21 22 23 24 25 26 27 28 29 30 31 32 33 34 35 36 37 38 39 40 41 42 43 44 45 46 47 48 49 50

079
ASUS43 KLOT 081903
RWRIL

ILLINOIS REGIONAL WEATHER ROUNDUP
NATIONAL WEATHER SERVICE CHICAGO/ROMEOVILLE IL
100 PM CST THU DEC 08 2016

NOTE: "FAIR" INDICATES FEW OR NO CLOUDS BELOW 12,000 FEET WITH NO
SIGNIFICANT WEATHER AND/OR OBSTRUCTIONS TO VISIBILITY.

* THESE STATIONS ARE NOT UNDER NWS QUALITY CONTROL. THEY ALSO MAY NOT
  REPORT WEATHER SUCH AS PRECIPITATION OR FOG.

ILZ001-002-007-009-015-016-024-082000-
NORTHWEST ILLINOIS

CITY           SKY/WX    TMP DP  RH WIND       PRES   REMARKS
MOLINE         FLURRIES  21  11  65 W21G28    30.41F WCI   5
STERLING*      FLURRIES  20  14  77 W23       30.36S WCI   3
$$

ILZ003-004-008-010-011-017-018-082000-
NORTH CENTRAL ILLINOIS

CITY           SKY/WX    TMP DP  RH WIND       PRES   REMARKS
ROCKFORD       FLURRIES  21  13  71 W18G26    30.33S WCI   6
FREEPORT*      CLOUDY    20  13  75 W15G26    30.33S WCI   6
ROCHELLE*      FLURRIES  19  14  79 W16G23    30.34R WCI   5
DE KALB*       FLURRIES  18  12  79 W20G28    30.31R WCI   1
$$

ILZ005-006-012>014-019>023-082000-
NORTHEAST ILLINOIS

CITY           SKY/WX    TMP DP  RH WIND       PRES   REMARKS
CHICAGO-OHARE  CLOUDY    20  12  71 W18G26    30.28R WCI   5
CHICAGO-MIDWAY FLURRIES  20  10  65 W20G28    30.30R WCI   4
AURORA         FLURRIES  19  12  74 W24G30    30.33R WCI   2
LANSING*       CLOUDY    19  14  79 W18G30    30.31R WCI   4
WAUKEGAN       PTSUNNY   22  13  68 W14G26    30.22S WCI   9
DUPAGE AIRPORT CLOUDY    19  10  68 W20       30.30R WCI   3
KANKAKEE*      FLURRIES  19  12  72 W18G29    30.35R WCI   4
WHEELING       CLOUDY    20  11  68 NW21G30   30.28S WCI   4
NORTHERLY ISL    N/A     20  12  71 SW18        N/A  WCI   5
$$

LMZ740>746-082000-
SOUTHERN LAKE MICHIGAN

STATION/POSITION SKY/WX   TEMP    WIND        PRES    VSBY  WAVE
                          AIR SEA DIR/SP/G                  HT/PER
                          (F)     (DEG/KT/KT) (MB)    (MI)  (FT/S)
HARRISON CRIB              21     270/ 30/ 34   N/A
BURNHAM HARBOR             21     210/  8/ 20   N/A
CALUMET HARBOR             21     250/ 10/ 24 1024.6S
BURNS HARBOR               21     250/ 23/ 26 1025.4R
$$

ILZ025>027-034>036-040-047-049-050-058-095>099-082000-
WEST-CENTRAL ILLINOIS

CITY           SKY/WX    TMP DP  RH WIND       PRES   REMARKS
QUINCY         PTSUNNY   25  11  55 W17       30.48S WCI  12
GALESBURG*     FLURRIES  19  12  73 W21G26    30.43S WCI   3
MACOMB*        CLOUDY    21  12  67 W21       30.48S WCI   6
JACKSONVILLE*  PTSUNNY   24  12  61 W16G22    30.46S WCI  11
$$

ILZ028>032-037-038-041>044-048-051>054-059>061-082000-
CENTRAL ILLINOIS

CITY           SKY/WX    TMP DP  RH WIND       PRES   REMARKS
BLOOMINGTON    CLOUDY    20  12  71 W24       30.37S WCI   3
DECATUR        CLOUDY    22  12  65 W17       30.41F WCI   8
PEORIA         CLOUDY    20  10  65 W15G24    30.43S WCI   6
SPRINGFIELD    CLOUDY    25  13  60 W21       30.44F WCI  11
TAYLORVILLE    NOT AVBL
$$

ILZ033-039-045-046-055>057-062-063-082000-
EAST-CENTRAL ILLINOIS

CITY           SKY/WX    TMP DP  RH WIND       PRES   REMARKS
CHAMPAIGN      CLOUDY    23  13  65 W20       30.38F WCI   8
MATTOON        CLOUDY    23  12  62 W16       30.40F WCI  10
PARIS*         CLOUDY    23  15  72 W21G26    30.40S WCI   8
$$

ILZ079-100>102-082000-
SOUTHWEST ILLINOIS

CITY           SKY/WX    TMP DP  RH WIND       PRES   REMARKS
ALTON          MOSUNNY   27  14  59 W17       30.48S WCI  14
BELLEVILLE     SUNNY     31  13  47 NW20      30.47F WCI  18
CAHOKIA*       SUNNY     30  12  47 W16G24    30.49F WCI  19
SPARTA*        SUNNY     29  14  53 W10G17    30.49S WCI  20
$$

ILZ064>066-069>071-074>076-080>082-084>086-088>090-092>094-082000-
SOUTH-CENTRAL ILLINOIS

CITY           SKY/WX    TMP DP  RH WIND       PRES   REMARKS
CARBONDALE     SUNNY     31  15  52 W13       30.48F WCI  21
CAIRO*         SUNNY     33  14  45 W10G16    30.48F WCI  25
MARION         SUNNY     32  16  51 W7        30.48S WCI  26
CENTRALIA*     PTSUNNY   29  18  62 W14G22    30.45F WCI  19
SALEM*         PTSUNNY   30  16  55 W14G20    30.45F WCI  19
$$

ILZ067-068-072-073-078-083-087-091-082000-
SOUTHEAST ILLINOIS

CITY           SKY/WX    TMP DP  RH WIND       PRES   REMARKS
LAWRENCEVILLE  PTSUNNY   27  15  61 NW16      30.43S WCI  15
HARRISBURG*    SUNNY     32  19  57 NW14      30.46F WCI  22
ROBINSON*      CLOUDY    24  15  67 NW16G22   30.44S WCI  11
CARMI*         SUNNY     31  18  59 NW15G22   30.44F WCI  20
$$

ABBREVIATIONS USED IN REMARKS
   TC - TEMPERATURE IN CELSIUS
  WCI - WIND CHILL INDEX
   HX - HEAT INDEX
  VSB - VISIBILITY
$$





USA.gov is the U.S. government's official web portal to all federal, state and local government web resources and services.